#timestamp,LO_Frequency,Hit,StdDev 
1621026015.4,286047003.9,N
1621026035.2,286047001.8,N
1621026055.1,286047004.3,N
1621026056.0,286047004.3,N
1621026075.8,286047001.5,N
1621026095.7,286047002.5,N
1621026115.5,286047004.0,N
1621026135.3,286047000.3,N
1621026155.2,286046999.8,N
1621026175.0,286046998.1,N
1621026175.9,286046998.1,N
1621026195.7,286046998.4,N
1621026215.6,286046999.4,N
1621026235.4,286046998.8,N
1621026255.3,286046998.9,N
1621026275.1,286047000.9,N
1621026276.0,286047000.9,N
1621026295.8,286047000.6,N
1621026315.7,286047000.9,N
1621026335.5,286047000.6,N
1621026355.3,286047004.1,N
1621026375.2,286047003.9,N
1621026395.0,286047003.7,N
1621026395.9,286047003.7,N
1621026415.8,286047004.4,N
1621026435.6,286047004.1,N
1621026455.4,286047003.1,N
1621026475.3,286047003.4,N
1621026495.1,286047003.4,N
1621026515.9,286047003.5,N
1621026535.7,286047004.7,N
1621026555.5,286047005.1,N
1621026575.4,286047005.2,N
1621026595.2,286047004.3,N
1621026615.0,286047005.8,N
1621026615.9,286047005.8,N
1621026635.8,286047005.2,N
1621026655.6,286047005.8,N
1621026675.5,286047004.6,N
1621026695.3,286047008.8,Y
1621026715.1,286047007.6,P
1621026735.9,286047005.7,N
1621026755.7,286047005.1,N
1621026775.6,286047005.7,Y
1621026795.4,286047002.8,P
1621026815.2,286047002.6,N
1621026835.1,286047002.4,N
1621026836.0,286047002.4,N
1621026855.8,286047002.5,N
1621026875.7,286046998.3,N
1621026895.5,286046999.2,N
1621026915.3,286046997.3,N
1621026935.2,286046997.0,N
1621026955.0,286046999.3,N
1621026955.9,286046999.3,N
1621026975.7,286046999.2,N
1621026995.6,286046999.3,N
1621027015.4,286046999.7,N
1621027035.3,286047000.9,N
1621027055.1,286047002.2,N
1621027075.8,286047002.5,N
1621027095.7,286047004.3,N
1621027115.5,286047003.7,N
1621027135.4,286047003.3,N
1621027155.2,286047005.8,N
1621027175.0,286047007.1,N
1621027175.9,286047007.1,N
1621027195.8,286047005.4,N
1621027215.6,286047003.6,N
1621027235.4,286047005.5,N
1621027255.3,286047005.1,N
1621027275.1,286047005.6,N
1621027295.9,286047002.9,N
1621027315.7,286047002.9,N
1621027335.5,286047005.7,N
1621027355.4,286047005.9,N
1621027375.2,286047006.0,N
1621027395.0,286047003.4,N
1621027396.0,286047003.4,N
1621027415.8,286047005.7,N
1621027435.6,286047003.0,N
1621027455.5,286047005.9,N
1621027475.3,286047007.1,N
1621027495.1,286047004.9,N
1621027515.9,286047002.9,N
1621027535.7,286047005.0,N
1621027555.5,286047005.1,N
1621027575.4,286047005.0,N
1621027595.2,286047007.6,Y
1621027615.1,286046999.7,P
1621027616.0,286046999.7,N
1621027635.8,286047002.6,N
1621027655.6,286047004.2,N
1621027675.5,286047002.2,N
1621027695.3,286047002.4,N
1621027715.2,286047002.5,N
1621027735.9,286047004.5,N
1621027755.7,286047005.7,Y
1621027775.6,286047003.2,P
1621027795.4,286047003.1,P
1621027815.2,286047003.6,P
1621027835.1,286047003.6,Y
1621027836.0,286047003.6,P
1621027855.8,286047001.0,P
1621027875.7,286047001.2,N
1621027895.5,286047001.1,N
1621027915.3,286047001.2,N
1621027935.2,286047001.2,N
1621027955.0,286047000.7,N
1621027955.9,286047000.7,N
1621027975.8,286046999.0,N
1621027995.6,286047000.7,N
1621028015.4,286047000.4,N
1621028035.3,286047000.4,N
1621028055.1,286047002.8,N
1621028075.9,286047002.4,N
1621028095.7,286046999.8,N
1621028115.5,286047011.9,Y
1621028135.4,286046998.6,P
1621028155.2,286047000.0,N
1621028175.0,286047001.8,N
1621028175.9,286047001.8,N
1621028195.8,286047004.2,Y
1621028215.6,286047004.1,P
1621028235.5,286047005.8,P
1621028255.3,286047003.4,N
1621028275.1,286047004.4,N
1621028295.9,286047002.1,N
1621028315.7,286047004.0,N
1621028335.6,286047001.3,N
1621028355.4,286047002.2,N
1621028375.2,286047002.0,N
1621028395.1,286047002.2,N
1621028396.0,286047002.2,N
1621028415.8,286047002.0,N
1621028435.7,286047003.9,N
1621028455.5,286047003.1,N
1621028475.3,286047003.4,N
1621028495.2,286047005.5,Y
1621028515.0,286047001.0,P
1621028515.9,286047001.0,N
1621028535.7,286046998.2,N
1621028555.6,286047000.5,N
1621028575.4,286046999.9,N
1621028595.3,286047002.4,N
1621028615.1,286046999.9,N
1621028616.0,286046999.9,N
1621028635.8,286047001.2,N
1621028655.7,286047000.9,N
1621028675.5,286047001.2,N
1621028695.4,286047001.1,N
1621028715.2,286046998.6,N
1621028735.0,286047000.4,N
1621028735.9,286047000.4,N
1621028755.8,286047002.4,N
1621028775.6,286047002.8,N
1621028795.4,286047003.9,Y
1621028815.3,286047000.3,P
1621028835.1,286046999.9,N
1621028855.9,286047002.8,P
1621028875.7,286047002.8,N
1621028895.5,286046999.7,N
1621028915.4,286047002.5,N
1621028935.2,286047002.7,N
1621028955.1,286047002.3,N
1621028956.0,286047002.3,N
1621028975.8,286046999.7,N
1621028995.6,286047000.2,N
1621029015.5,286046999.9,N
1621029035.3,286047001.3,N
1621029055.1,286047003.7,N
1621029075.9,286047004.0,N
1621029095.7,286047004.8,Y
1621029115.6,286047003.3,P
1621029135.4,286047003.3,P
1621029155.2,286047005.8,P
1621029175.1,286047003.2,N
1621029176.0,286047003.2,N
1621029195.8,286047003.7,N
1621029215.7,286047004.7,Y
1621029235.5,286047004.4,P
1621029255.3,286047001.3,N
1621029275.2,286047003.8,N
1621029295.0,286047003.6,Y
1621029295.9,286047003.6,P
1621029315.8,286047001.1,P
1621029335.6,286046998.1,N
1621029355.4,286047000.8,N
1621029375.3,286046999.0,N
1621029395.1,286046998.1,N
1621029415.8,286046998.2,N
1621029435.7,286047001.1,N
1621029455.5,286046998.4,N
1621029475.4,286046998.6,N
1621029495.2,286046999.1,N
1621029515.0,286046997.0,N
1621029515.9,286046997.0,N
1621029535.8,286046998.8,N
1621029555.6,286046996.9,N
1621029575.5,286046998.3,N
1621029595.3,286046998.2,N
